Weather History for Grove, OK

Change the Weather History Date:

Friday, January 18, 2013

  Actual Average (KSLG) Record (KSLG)
Temperature  
Mean Temperature 42 °F -  
Max Temperature 59 °F 44 °F 60 °F (2006)
Min Temperature 26 °F 27 °F 3 °F (1997)
Degree Days  
Heating Degree Days 22    
Moisture  
Dew Point 30 °F    
Average Humidity 67    
Maximum Humidity 100    
Minimum Humidity 33    
Precipitation  
Precipitation 0.00 in - - ()
Sea Level Pressure  
Sea Level Pressure 30.36 in    
Wind  
Wind Speed 5 mph (South)    
Max Wind Speed 18 mph    
Max Gust Speed 24 mph    
Visibility 10 miles    
Events      
Averages and records for this station are not official NWS values.
T = Trace of Precipitation, MM = Missing Value Source: NWS Daily Summary

Daily Weather History Graph

Daily Weather History Graph

Search for Another Location

Airport:

Trip Planner

Search our weather history database for the weather conditions in past years. The results will help you decide how hot, cold, wet, or windy it might be!

Date:

Astronomy

Jan. 18, 2013 Rise Set
Actual Time 7:29 AM CST 5:30 PM CST
Civil Twilight 7:01 AM CST 5:58 PM CST
Nautical Twilight 6:29 AM CST 6:29 PM CST
Astronomical Twilight 5:58 AM CST 7:00 PM CST
Moon 11:21 AM CST (1/18) 12:08 AM CST (1/18)
Length of Visible Light 10h 57m
Length of Day
10h 01m
Waxing Crescent, 47% of the Moon is Illuminated
Jan 18
Waxing Crescent
Jan 18
First Quarter
Jan 26
Full
Feb 3
Last Quarter
Feb 10
New

Hourly Weather History & Observations

Time (CST) Temp. Windchill Dew Point Humidity Pressure Visibility Wind Dir Wind Speed Gust Speed Precip Events Conditions
12:15 AM 28.4 °F 24.6 °F 28.4 °F 100% 30.50 in 7.0 mi East 3.5 mph - N/A   Clear
12:35 AM 28.4 °F - 28.4 °F 100% 30.50 in 10.0 mi Calm Calm - N/A   Clear
12:55 AM 28.4 °F - 28.4 °F 100% 30.50 in 7.0 mi Calm Calm - N/A   Clear
1:15 AM 28.4 °F - 28.4 °F 100% 30.50 in 10.0 mi Calm Calm - N/A   Clear
1:35 AM 28.4 °F - 28.4 °F 100% 30.51 in 10.0 mi Calm Calm - N/A   Clear
1:55 AM 28.4 °F - 28.4 °F 100% 30.51 in 10.0 mi Calm Calm - N/A   Clear
2:15 AM 28.4 °F - 28.4 °F 100% 30.51 in 10.0 mi Calm Calm - N/A   Clear
2:35 AM 28.4 °F - 28.4 °F 100% 30.51 in 10.0 mi Calm Calm - N/A   Clear
2:55 AM 28.4 °F - 28.4 °F 100% 30.51 in 10.0 mi Calm Calm - N/A   Clear
3:15 AM 28.4 °F - 28.4 °F 100% 30.50 in 10.0 mi Calm Calm - N/A   Clear
3:35 AM 28.4 °F - 28.4 °F 100% 30.50 in 10.0 mi Calm Calm - N/A   Clear
3:55 AM 26.6 °F - 26.6 °F 100% 30.49 in 10.0 mi Calm Calm - N/A   Clear
4:15 AM 26.6 °F - 26.6 °F 100% 30.48 in 10.0 mi Calm Calm - N/A   Clear
4:35 AM 26.6 °F - 26.6 °F 100% 30.48 in 10.0 mi Calm Calm - N/A   Clear
4:55 AM 26.6 °F - 26.6 °F 100% 30.48 in 10.0 mi Calm Calm - N/A   Clear
5:15 AM 28.4 °F - 28.4 °F 100% 30.47 in 7.0 mi Calm Calm - N/A   Clear
5:35 AM 26.6 °F 22.6 °F 26.6 °F 100% 30.46 in 10.0 mi ESE 3.5 mph - N/A   Clear
5:55 AM 26.6 °F - 26.6 °F 100% 30.46 in 10.0 mi Calm Calm - N/A   Clear
6:15 AM 26.6 °F - 26.6 °F 100% 30.45 in 10.0 mi Calm Calm - N/A   Clear
6:35 AM 26.6 °F - 26.6 °F 100% 30.45 in 10.0 mi Calm Calm - N/A   Clear
6:55 AM 26.6 °F - 26.6 °F 100% 30.44 in 7.0 mi Calm Calm - N/A   Clear
7:15 AM 26.6 °F - 26.6 °F 100% 30.44 in 10.0 mi Calm Calm - N/A   Clear
7:35 AM 32.0 °F 28.7 °F 32.0 °F 100% 30.43 in 10.0 mi SSE 3.5 mph - N/A   Clear
7:55 AM 32.0 °F - 30.2 °F 93% 30.44 in 10.0 mi Calm Calm - N/A   Clear
8:15 AM 32.0 °F - 32.0 °F 100% 30.44 in 10.0 mi Calm Calm - N/A   Clear
8:35 AM 35.6 °F 31.7 °F 32.0 °F 87% 30.44 in 10.0 mi South 4.6 mph - N/A   Clear
8:55 AM 39.2 °F 34.2 °F 32.0 °F 75% 30.45 in 10.0 mi South 6.9 mph - N/A   Clear
9:15 AM 41.0 °F 35.8 °F 32.0 °F 70% 30.45 in 10.0 mi South 8.1 mph - N/A   Clear
9:35 AM 42.8 °F 39.3 °F 32.0 °F 66% 30.45 in 10.0 mi South 5.8 mph - N/A   Clear
9:55 AM 44.6 °F 39.7 °F 32.0 °F 61% 30.45 in 10.0 mi South 9.2 mph - N/A   Clear
10:15 AM 46.4 °F 41.1 °F 32.0 °F 57% 30.45 in 10.0 mi South 11.5 mph - N/A   Clear
10:35 AM 48.2 °F - 32.0 °F 54% 30.44 in 10.0 mi South 15.0 mph 24.2 mph N/A   Clear
10:55 AM 50.0 °F - 32.0 °F 50% 30.44 in 10.0 mi SSW 16.1 mph 19.6 mph N/A   Clear
11:15 AM 51.8 °F - 32.0 °F 47% 30.43 in 10.0 mi SSW 18.4 mph 24.2 mph N/A   Clear
11:35 AM 51.8 °F - 32.0 °F 47% 30.41 in 10.0 mi SSW 16.1 mph 20.7 mph N/A   Clear
11:55 AM 53.6 °F - 32.0 °F 44% 30.39 in 10.0 mi SSW 13.8 mph 19.6 mph N/A   Clear
12:15 PM 53.6 °F - 32.0 °F 44% 30.37 in 10.0 mi SW 15.0 mph - N/A   Clear
12:35 PM 53.6 °F - 32.0 °F 44% 30.35 in 10.0 mi South 12.7 mph 19.6 mph N/A   Clear
12:55 PM 55.4 °F - 32.0 °F 41% 30.34 in 10.0 mi South 11.5 mph - N/A   Clear
1:15 PM 55.4 °F - 32.0 °F 41% 30.33 in 10.0 mi SSW 12.7 mph - N/A   Clear
1:35 PM 57.2 °F - 32.0 °F 38% 30.32 in 10.0 mi SSW 16.1 mph 20.7 mph N/A   Clear
1:55 PM 59.0 °F - 30.2 °F 34% 30.31 in 10.0 mi South 16.1 mph 19.6 mph N/A   Clear
2:15 PM 59.0 °F - 30.2 °F 34% 30.30 in 10.0 mi South 15.0 mph 18.4 mph N/A   Clear
2:35 PM 59.0 °F - 30.2 °F 34% 30.29 in 10.0 mi South 16.1 mph 19.6 mph N/A   Clear
2:55 PM 57.2 °F - 28.4 °F 33% 30.29 in 10.0 mi SSW 15.0 mph 20.7 mph N/A   Clear
3:15 PM 57.2 °F - 30.2 °F 36% 30.28 in 10.0 mi SSW 18.4 mph 21.9 mph N/A   Clear
3:35 PM 55.4 °F - 30.2 °F 38% 30.28 in 10.0 mi South 17.3 mph - N/A   Clear
3:55 PM 55.4 °F - 30.2 °F 38% 30.27 in 10.0 mi SSW 13.8 mph 19.6 mph N/A   Clear
4:15 PM 55.4 °F - 30.2 °F 38% 30.27 in 10.0 mi South 15.0 mph 20.7 mph N/A   Clear
4:35 PM 55.4 °F - 30.2 °F 38% 30.26 in 10.0 mi South 13.8 mph - N/A   Clear
4:55 PM 53.6 °F - 30.2 °F 41% 30.26 in 10.0 mi South 11.5 mph - N/A   Clear
5:15 PM 51.8 °F - 30.2 °F 44% 30.26 in 10.0 mi South 9.2 mph - N/A   Clear
5:35 PM 51.8 °F - 30.2 °F 44% 30.25 in 10.0 mi South 9.2 mph - N/A   Clear
5:55 PM 50.0 °F - 30.2 °F 47% 30.24 in 10.0 mi South 10.4 mph - N/A   Clear
6:15 PM 50.0 °F - 30.2 °F 47% 30.24 in 10.0 mi South 8.1 mph - N/A   Clear
6:35 PM 48.2 °F - 30.2 °F 50% 30.24 in 10.0 mi South 4.6 mph - N/A   Clear
6:55 PM 46.4 °F 43.5 °F 30.2 °F 53% 30.24 in 10.0 mi South 5.8 mph - N/A   Clear
7:15 PM 46.4 °F 42.9 °F 30.2 °F 53% 30.24 in 10.0 mi South 6.9 mph - N/A   Clear
7:35 PM 46.4 °F 41.9 °F 30.2 °F 53% 30.24 in 10.0 mi South 9.2 mph - N/A   Clear
7:55 PM 46.4 °F 41.9 °F 30.2 °F 53% 30.23 in 10.0 mi South 9.2 mph - N/A   Clear
8:15 PM 46.4 °F 41.5 °F 30.2 °F 53% 30.23 in 10.0 mi South 10.4 mph - N/A   Clear
8:35 PM 46.4 °F 42.9 °F 28.4 °F 50% 30.23 in 10.0 mi South 6.9 mph - N/A   Clear
8:55 PM 46.4 °F 41.9 °F 28.4 °F 50% 30.23 in 10.0 mi South 9.2 mph - N/A   Clear
9:35 PM 46.4 °F 41.9 °F 30.2 °F 53% 30.23 in 10.0 mi South 9.2 mph - N/A   Clear
9:55 PM 46.4 °F 41.5 °F 30.2 °F 53% 30.22 in 10.0 mi South 10.4 mph - N/A   Clear
10:15 PM 46.4 °F 41.9 °F 30.2 °F 53% 30.22 in 10.0 mi South 9.2 mph - N/A   Clear
10:35 PM 46.4 °F 41.5 °F 32.0 °F 57% 30.22 in 10.0 mi South 10.4 mph - N/A   Clear
10:55 PM 46.4 °F 41.9 °F 32.0 °F 57% 30.21 in 10.0 mi South 9.2 mph - N/A   Clear
11:15 PM 46.4 °F 41.9 °F 32.0 °F 57% 30.21 in 10.0 mi South 9.2 mph 16.1 mph N/A   Clear
11:35 PM 46.4 °F 41.5 °F 32.0 °F 57% 30.20 in 10.0 mi South 10.4 mph 17.3 mph N/A   Clear
11:55 PM 46.4 °F 41.1 °F 32.0 °F 57% 30.20 in 10.0 mi South 11.5 mph 17.3 mph N/A   Clear